| time (UTC) | temp F | wind direction | speed MPH | gust MPH | rain 1hr in | rain 24hr in | rain mn in | humidity % | barometer mb |
| 20260903193403 | 87 | 332 | 5.0 | 8.0 | 0.00 | 0.00 | 0.00 | 60 | 1018.7 |
| 20260903193018 | 87 | 309 | 3.0 | 9.0 | 0.00 | 0.00 | 0.00 | 62 | 1019.6 |
| 20260903192903 | 87 | 341 | 5.0 | 8.0 | 0.00 | 0.00 | 0.00 | 60 | 1018.8 |
| 20260903192403 | 87 | 320 | 6.0 | 9.0 | 0.00 | 0.00 | 0.00 | 61 | 1018.8 |
| 20260903191903 | 87 | 341 | 6.0 | 9.0 | 0.00 | 0.00 | 0.00 | 62 | 1018.9 |
| 20260903191519 | 86 | 300 | 5.0 | 11.0 | 0.00 | 0.00 | 0.00 | 64 | 1019.8 |
| 20260903190903 | 87 | 321 | 7.0 | 10.0 | 0.00 | 0.00 | 0.00 | 63 | 1019.0 |
| 20260903190403 | 86 | 309 | 4.0 | 9.0 | 0.00 | 0.00 | 0.00 | 68 | 1019.1 |
| 20260903190022 | 85 | 309 | 5.0 | 9.0 | 0.00 | 0.00 | 0.00 | 66 | 1020.0 |
| 20260903185903 | 86 | 327 | 6.0 | 8.0 | 0.00 | 0.00 | 0.00 | 67 | 1019.3 |
| 20260903185403 | 86 | 330 | 3.0 | 6.0 | 0.00 | 0.00 | 0.00 | 67 | 1019.3 |
| 20260903184903 | 86 | 270 | 3.0 | 6.0 | 0.00 | 0.00 | 0.00 | 63 | 1019.3 |
| 20260903184506 | 85 | 300 | 4.0 | 10.0 | 0.00 | 0.00 | 0.00 | 65 | 1020.2 |
| 20260903183904 | 86 | 290 | 5.0 | 10.0 | 0.00 | 0.00 | 0.00 | 64 | 1019.5 |
| 20260903183403 | 86 | 315 | 3.0 | 5.0 | 0.00 | 0.00 | 0.00 | 64 | 1019.5 |
| 20260903183017 | 85 | 345 | 2.0 | 4.0 | 0.00 | 0.00 | 0.00 | 67 | 1020.2 |
| 20260903182903 | 86 | 325 | 3.0 | 5.0 | 0.00 | 0.00 | 0.00 | 65 | 1019.4 |
| 20260903182403 | 86 | 14 | 2.0 | 5.0 | 0.00 | 0.00 | 0.00 | 63 | 1019.4 |
| 20260903181903 | 86 | 1 | 3.0 | 7.0 | 0.00 | 0.00 | 0.00 | 64 | 1019.6 |
| 20260903181518 | 85 | 331 | 4.0 | 6.0 | 0.00 | 0.00 | 0.00 | 64 | 1020.4 |
| 20260903181404 | 86 | 325 | 4.0 | 6.0 | 0.00 | 0.00 | 0.00 | 64 | 1019.6 |
| 20260903180403 | 85 | 352 | 4.0 | 6.0 | 0.00 | 0.00 | 0.00 | 65 | 1019.4 |
| 20260903180040 | 85 | 360 | 2.0 | 9.0 | 0.00 | 0.00 | 0.00 | 64 | 1020.3 |
| 20260903175903 | 85 | 358 | 3.0 | 8.0 | 0.00 | 0.00 | 0.00 | 63 | 1019.5 |
| 20260903175403 | 86 | 328 | 6.0 | 9.0 | 0.00 | 0.00 | 0.00 | 62 | 1019.6 |
| 20260903174903 | 86 | 310 | 5.0 | 8.0 | 0.00 | 0.00 | 0.00 | 64 | 1019.7 |
| 20260903174524 | 85 | 293 | 3.0 | 9.0 | 0.00 | 0.00 | 0.00 | 65 | 1020.4 |
| 20260903174403 | 86 | 322 | 3.0 | 8.0 | 0.00 | 0.00 | 0.00 | 64 | 1019.8 |
| 20260903173903 | 86 | 332 | 6.0 | 9.0 | 0.00 | 0.00 | 0.00 | 64 | 1019.8 |
| 20260903173403 | 86 | 315 | 3.0 | 6.0 | 0.00 | 0.00 | 0.00 | 65 | 1019.8 |
| 20260903173024 | 86 | 338 | 3.0 | 8.0 | 0.00 | 0.00 | 0.00 | 64 | 1020.6 |
| 20260903172903 | 86 | 320 | 4.0 | 8.0 | 0.00 | 0.00 | 0.00 | 63 | 1019.9 |
| 20260903171903 | 86 | 310 | 6.0 | 9.0 | 0.00 | 0.00 | 0.00 | 63 | 1019.9 |
| 20260903171516 | 85 | 312 | 6.0 | 12.0 | 0.00 | 0.00 | 0.00 | 66 | 1020.6 |
| 20260903171403 | 85 | 307 | 5.0 | 10.0 | 0.00 | 0.00 | 0.00 | 65 | 1019.9 |
| 20260903170903 | 85 | 317 | 6.0 | 12.0 | 0.00 | 0.00 | 0.00 | 65 | 1019.9 |
| 20260903170404 | 86 | 244 | 5.0 | 8.0 | 0.00 | 0.00 | 0.00 | 63 | 1020.0 |
| 20260903170025 | 86 | 281 | 3.0 | 8.0 | 0.00 | 0.00 | 0.00 | 65 | 1020.8 |
| 20260903165903 | 86 | 317 | 5.0 | 8.0 | 0.00 | 0.00 | 0.00 | 61 | 1020.0 |
| 20260903165403 | 86 | 251 | 4.0 | 7.0 | 0.00 | 0.00 | 0.00 | 64 | 1020.1 |
| 20260903164903 | 86 | 313 | 3.0 | 10.0 | 0.00 | 0.00 | 0.00 | 65 | 1020.1 |
| 20260903164529 | 85 | 329 | 4.0 | 8.0 | 0.00 | 0.00 | 0.00 | 65 | 1021.0 |
| 20260903164403 | 86 | 296 | 3.0 | 6.0 | 0.00 | 0.00 | 0.00 | 63 | 1020.1 |
| 20260903163903 | 86 | 353 | 2.0 | 6.0 | 0.00 | 0.00 | 0.00 | 66 | 1020.3 |
| 20260903163403 | 85 | 219 | 5.0 | 10.0 | 0.00 | 0.00 | 0.00 | 66 | 1020.2 |
| 20260903163039 | 85 | 265 | 4.0 | 10.0 | 0.00 | 0.00 | 0.00 | 67 | 1021.0 |
| 20260903162904 | 85 | 301 | 6.0 | 10.0 | 0.00 | 0.00 | 0.00 | 65 | 1020.3 |
| 20260903162403 | 85 | 256 | 3.0 | 9.0 | 0.00 | 0.00 | 0.00 | 64 | 1020.3 |
| 20260903161526 | 84 | 333 | 3.0 | 9.0 | 0.00 | 0.00 | 0.00 | 68 | 1021.2 |
| 20260903161403 | 85 | 336 | 5.0 | 9.0 | 0.00 | 0.00 | 0.00 | 69 | 1020.5 |
| 20260903160903 | 84 | 272 | 5.0 | 8.0 | 0.00 | 0.00 | 0.00 | 67 | 1020.5 |
| 20260903160403 | 84 | 259 | 5.0 | 12.0 | 0.00 | 0.00 | 0.00 | 67 | 1020.5 |
| 20260903160019 | 84 | 338 | 2.0 | 8.0 | 0.00 | 0.00 | 0.00 | 68 | 1021.3 |
| 20260903155903 | 85 | 299 | 5.0 | 8.0 | 0.00 | 0.00 | 0.00 | 67 | 1020.6 |
| 20260903155403 | 85 | 317 | 2.0 | 9.0 | 0.00 | 0.00 | 0.00 | 66 | 1020.5 |
| 20260903154903 | 85 | 302 | 5.0 | 12.0 | 0.00 | 0.00 | 0.00 | 66 | 1020.6 |
| 20260903154527 | 84 | 244 | 1.0 | 8.0 | 0.00 | 0.00 | 0.00 | 68 | 1021.4 |
| 20260903154403 | 85 | 39 | 3.0 | 7.0 | 0.00 | 0.00 | 0.00 | 67 | 1020.6 |
| 20260903153903 | 84 | 293 | 5.0 | 8.0 | 0.00 | 0.00 | 0.00 | 67 | 1020.7 |
| 20260903153403 | 84 | 328 | 2.0 | 8.0 | 0.00 | 0.00 | 0.00 | 70 | 1020.6 |
| 20260903153031 | 84 | 328 | 4.0 | 9.0 | 0.00 | 0.00 | 0.00 | 69 | 1021.4 |
| 20260903152903 | 84 | 323 | 5.0 | 7.0 | 0.00 | 0.00 | 0.00 | 68 | 1020.5 |
| 20260903152404 | 84 | 317 | 3.0 | 9.0 | 0.00 | 0.00 | 0.00 | 68 | 1020.7 |
| 20260903151904 | 84 | 257 | 3.0 | 7.0 | 0.00 | 0.00 | 0.00 | 69 | 1020.7 |
| 20260903151529 | 83 | 241 | 1.0 | 5.0 | 0.00 | 0.00 | 0.00 | 73 | 1021.5 |
| 20260903150903 | 83 | 218 | 2.0 | 6.0 | 0.00 | 0.00 | 0.00 | 71 | 1020.7 |
| 20260903150403 | 83 | 247 | 1.0 | 2.0 | 0.00 | 0.00 | 0.00 | 72 | 1020.7 |
| 20260903150030 | 82 | 169 | 0.0 | 5.0 | 0.00 | 0.00 | 0.00 | 75 | 1021.4 |
| 20260903145903 | 83 | 161 | 2.0 | 5.0 | 0.00 | 0.00 | 0.00 | 73 | 1020.7 |
| 20260903144903 | 83 | 163 | 4.0 | 6.0 | 0.00 | 0.00 | 0.00 | 72 | 1020.8 |
| 20260903144526 | 82 | 143 | 0.0 | 6.0 | 0.00 | 0.00 | 0.00 | 77 | 1021.4 |
| 20260903144404 | 82 | 153 | 1.0 | 6.0 | 0.00 | 0.00 | 0.00 | 72 | 1020.6 |
| 20260903143404 | 81 | 155 | 2.0 | 6.0 | 0.00 | 0.00 | 0.00 | 77 | 1020.6 |
| 20260903143028 | 81 | 159 | 1.0 | 6.0 | 0.00 | 0.00 | 0.00 | 77 | 1021.3 |
| 20260903142903 | 81 | 173 | 2.0 | 5.0 | 0.00 | 0.00 | 0.00 | 78 | 1020.7 |
| 20260903142403 | 81 | 119 | 2.0 | 6.0 | 0.00 | 0.00 | 0.00 | 78 | 1020.7 |
| 20260903141903 | 80 | 151 | 3.0 | 6.0 | 0.00 | 0.00 | 0.00 | 78 | 1020.8 |
| 20260903141531 | 79 | 79 | 3.0 | 5.0 | 0.00 | 0.00 | 0.00 | 80 | 1021.3 |
| 20260903141404 | 80 | 117 | 5.0 | 5.0 | 0.00 | 0.00 | 0.00 | 79 | 1020.8 |
| 20260903140903 | 79 | 100 | 2.0 | 5.0 | 0.00 | 0.00 | 0.00 | 81 | 1020.7 |
| 20260903140034 | 78 | 54 | 1.0 | 4.0 | 0.00 | 0.00 | 0.00 | 83 | 1021.4 |
| 20260903135905 | 78 | 64 | 3.0 | 8.0 | 0.00 | 0.00 | 0.00 | 82 | 1020.8 |
| 20260903134532 | 77 | 133 | 1.0 | 4.0 | 0.00 | 0.00 | 0.00 | 85 | 1021.5 |
| 20260903133025 | 76 | 148 | 1.0 | 3.0 | 0.00 | 0.00 | 0.00 | 86 | 1021.5 |
| 20260903131529 | 74 | 130 | 1.0 | 3.0 | 0.00 | 0.00 | 0.00 | 89 | 1021.6 |
| 20260903130041 | 72 | 53 | 1.0 | 3.0 | 0.00 | 0.00 | 0.00 | 91 | 1021.7 |
| 20260903124532 | 71 | 333 | 0.0 | 0.0 | 0.00 | 0.00 | 0.00 | 94 | 1021.8 |
| 20260903123004 | 69 | 333 | 0.0 | 0.0 | 0.00 | 0.00 | 0.00 | 98 | 1021.9 |
| 20260903121502 | 67 | 333 | 0.0 | 0.0 | 0.00 | 0.00 | 0.00 | 98 | 1021.9 |
| 20260903120010 | 66 | 333 | 0.0 | 0.0 | 0.00 | 0.00 | 0.00 | 98 | 1022.0 |
| 20260903114514 | 65 | 333 | 0.0 | 0.0 | 0.00 | 0.00 | 0.00 | 99 | 1021.9 |
| 20260903113032 | 64 | 333 | 0.0 | 0.0 | 0.00 | 0.00 | 0.00 | 98 | 1021.9 |
| 20260903111505 | 64 | 333 | 0.0 | 0.0 | 0.00 | 0.00 | 0.00 | 98 | 1021.8 |
| 20260903110007 | 64 | 333 | 0.0 | 0.0 | 0.00 | 0.00 | 0.00 | 98 | 1021.5 |
| 20260903104512 | 64 | 333 | 0.0 | 0.0 | 0.00 | 0.00 | 0.00 | 98 | 1021.4 |
| 20260903103018 | 64 | 333 | 0.0 | 0.0 | 0.00 | 0.00 | 0.00 | 98 | 1021.3 |
| 20260903101523 | 64 | 333 | 0.0 | 0.0 | 0.00 | 0.00 | 0.00 | 98 | 1021.1 |
| 20260903100032 | 64 | 333 | 0.0 | 2.0 | 0.00 | 0.00 | 0.00 | 98 | 1021.1 |
| 20260903094523 | 64 | 333 | 0.0 | 1.0 | 0.00 | 0.00 | 0.00 | 98 | 1021.1 |
| 20260903093015 | 64 | 333 | 0.0 | 2.0 | 0.00 | 0.00 | 0.00 | 98 | 1021.1 |
| 20260903091523 | 64 | 333 | 0.0 | 1.0 | 0.00 | 0.00 | 0.00 | 97 | 1021.0 |
| 20260903090026 | 64 | 333 | 1.0 | 2.0 | 0.00 | 0.00 | 0.00 | 98 | 1020.9 |
| 20260903084532 | 65 | 333 | 0.0 | 2.0 | 0.00 | 0.00 | 0.00 | 97 | 1020.8 |
| 20260903083010 | 65 | 333 | 0.0 | 2.0 | 0.00 | 0.00 | 0.00 | 97 | 1020.7 |
| 20260903081525 | 65 | 333 | 0.0 | 2.0 | 0.00 | 0.00 | 0.00 | 97 | 1020.8 |
| 20260903080027 | 65 | 333 | 0.0 | 2.0 | 0.00 | 0.00 | 0.00 | 97 | 1020.9 |
| 20260903074530 | 65 | 333 | 1.0 | 3.0 | 0.00 | 0.00 | 0.00 | 97 | 1020.9 |
| 20260903073030 | 65 | 311 | 1.0 | 4.0 | 0.00 | 0.00 | 0.00 | 97 | 1020.8 |
| 20260903071515 | 66 | 300 | 1.0 | 4.0 | 0.00 | 0.00 | 0.00 | 97 | 1020.8 |
| 20260903070033 | 66 | 300 | 2.0 | 4.0 | 0.00 | 0.00 | 0.00 | 97 | 1020.9 |
| 20260903064527 | 66 | 304 | 2.0 | 3.0 | 0.00 | 0.00 | 0.00 | 97 | 1020.9 |
| 20260903063028 | 66 | 281 | 1.0 | 4.0 | 0.00 | 0.00 | 0.00 | 97 | 1020.9 |
| 20260903061547 | 66 | 304 | 1.0 | 4.0 | 0.00 | 0.00 | 0.00 | 97 | 1021.1 |
| 20260903060019 | 66 | 304 | 0.0 | 2.0 | 0.00 | 0.00 | 0.00 | 97 | 1021.2 |
| 20260903054541 | 66 | 304 | 1.0 | 3.0 | 0.00 | 0.00 | 0.00 | 97 | 1021.1 |
| 20260903053036 | 66 | 308 | 1.0 | 3.0 | 0.00 | 0.00 | 0.00 | 97 | 1021.0 |
| 20260903051529 | 66 | 321 | 1.0 | 2.0 | 0.00 | 0.00 | 0.00 | 96 | 1020.9 |
| 20260903050033 | 66 | 314 | 1.0 | 4.0 | 0.00 | 0.00 | 0.00 | 96 | 1021.0 |
| 20260903044523 | 66 | 319 | 2.0 | 4.0 | 0.00 | 0.00 | 0.00 | 97 | 1021.0 |
| 20260903043027 | 66 | 302 | 1.0 | 3.0 | 0.00 | 0.00 | 0.00 | 96 | 1021.2 |
| 20260903041531 | 67 | 248 | 0.0 | 0.0 | 0.00 | 0.00 | 0.00 | 95 | 1021.2 |
| 20260903040012 | 67 | 248 | 0.0 | 0.0 | 0.00 | 0.00 | 0.00 | 95 | 1021.2 |
| 20260903034503 | 67 | 244 | 2.0 | 6.0 | 0.00 | 0.00 | 0.00 | 96 | 1021.2 |
| 20260903033002 | 68 | 309 | 1.0 | 3.0 | 0.00 | 0.00 | 0.00 | 96 | 1021.3 |
| 20260903031505 | 68 | 258 | 2.0 | 4.0 | 0.00 | 0.00 | 0.00 | 96 | 1021.1 |
| 20260903030019 | 69 | 305 | 1.0 | 3.0 | 0.00 | 0.00 | 0.00 | 95 | 1021.0 |
| 20260903024527 | 69 | 305 | 1.0 | 4.0 | 0.00 | 0.00 | 0.00 | 95 | 1021.2 |
| 20260903023020 | 69 | 269 | 0.0 | 4.0 | 0.00 | 0.00 | 0.00 | 95 | 1021.4 |
| 20260903021503 | 70 | 315 | 2.0 | 4.0 | 0.00 | 0.00 | 0.00 | 95 | 1021.3 |
| 20260903020008 | 70 | 306 | 2.0 | 4.0 | 0.00 | 0.00 | 0.00 | 94 | 1021.2 |
| 20260903014510 | 70 | 302 | 1.0 | 4.0 | 0.00 | 0.00 | 0.00 | 94 | 1021.4 |
| 20260903013018 | 71 | 295 | 2.0 | 3.0 | 0.00 | 0.00 | 0.00 | 94 | 1021.3 |
| 20260903011537 | 72 | 321 | 2.0 | 4.0 | 0.00 | 0.00 | 0.00 | 93 | 1021.3 |
| 20260903010007 | 72 | 315 | 0.0 | 4.0 | 0.00 | 0.00 | 0.00 | 92 | 1021.3 |
| 20260903004517 | 73 | 313 | 2.0 | 4.0 | 0.00 | 0.00 | 0.00 | 91 | 1021.1 |
| 20260903003015 | 73 | 306 | 2.0 | 4.0 | 0.00 | 0.00 | 0.00 | 91 | 1020.9 |
| 20260903001520 | 74 | 298 | 2.0 | 7.0 | 0.00 | 0.00 | 0.00 | 90 | 1020.7 |
| 20260903000028 | 75 | 302 | 2.0 | 5.0 | 0.00 | 0.00 | 0.00 | 88 | 1020.4 |
| 20260902234506 | 76 | 282 | 3.0 | 6.0 | 0.00 | 0.00 | 0.00 | 86 | 1020.6 |
| 20260902233025 | 77 | 301 | 2.0 | 4.0 | 0.00 | 0.00 | 0.00 | 84 | 1020.6 |
| 20260902231517 | 79 | 296 | 2.0 | 4.0 | 0.00 | 0.00 | 0.00 | 81 | 1020.5 |
| 20260902230027 | 81 | 319 | 1.0 | 4.0 | 0.00 | 0.00 | 0.00 | 77 | 1020.4 |
| 20260902224527 | 83 | 300 | 1.0 | 4.0 | 0.00 | 0.00 | 0.00 | 73 | 1020.4 |
| 20260902223006 | 85 | 306 | 0.0 | 4.0 | 0.00 | 0.00 | 0.00 | 69 | 1020.4 |
| 20260902221517 | 85 | 324 | 2.0 | 7.0 | 0.00 | 0.00 | 0.00 | 66 | 1020.3 |
| 20260902220019 | 85 | 310 | 4.0 | 9.0 | 0.00 | 0.00 | 0.00 | 62 | 1020.3 |
| 20260902214527 | 86 | 295 | 5.0 | 9.0 | 0.00 | 0.00 | 0.00 | 61 | 1020.5 |
| 20260902213030 | 86 | 305 | 6.0 | 10.0 | 0.00 | 0.00 | 0.00 | 59 | 1020.4 |
| 20260902211511 | 86 | 304 | 5.0 | 11.0 | 0.00 | 0.00 | 0.00 | 59 | 1020.4 |
| 20260902210015 | 87 | 294 | 5.0 | 11.0 | 0.00 | 0.00 | 0.00 | 59 | 1020.6 |
| 20260902204537 | 87 | 307 | 7.0 | 11.0 | 0.00 | 0.00 | 0.00 | 57 | 1020.7 |
| 20260902203028 | 87 | 350 | 3.0 | 8.0 | 0.00 | 0.00 | 0.00 | 57 | 1020.6 |
| 20260902201533 | 87 | 320 | 4.0 | 10.0 | 0.00 | 0.00 | 0.00 | 59 | 1020.6 |
| 20260902200012 | 87 | 301 | 6.0 | 12.0 | 0.00 | 0.00 | 0.00 | 58 | 1020.8 |
| 20260902194519 | 88 | 307 | 5.0 | 14.0 | 0.00 | 0.00 | 0.00 | 55 | 1021.0 |